This is the latest recevied weather packets stored in our database for station/object K6HFP. If no packets are shown the sender has not sent any weather packets the latest 1 day(s).
| Time | Temp. | Humidity | Pressure | Rain* | Wind** | Luminosity | Snow |
|---|---|---|---|---|---|---|---|
| 1777998372 | 11.11° C | 93% | 1014.3 hPa | 0 mm | 0 m/s | 131 W/m² | - |
| 1777998069 | 11.11° C | 94% | 1014.3 hPa | 0 mm | 0.45 m/s, 323° | 135 W/m² | - |
| 1777997766 | 11.11° C | 95% | 1014.2 hPa | 0 mm | 0.45 m/s, 281° | 110 W/m² | - |
| 1777997463 | 11.11° C | 95% | 1014.3 hPa | 0 mm | 0.45 m/s, 166° | 129 W/m² | - |
| 1777997161 | 10.56° C | 95% | 1014.2 hPa | 0 mm | 0 m/s | 116 W/m² | - |
| 1777996858 | 10.56° C | 96% | 1014.4 hPa | 0 mm | 0.45 m/s, 331° | 121 W/m² | - |
| 1777996554 | 10.56° C | 96% | 1014.2 hPa | 0 mm | 0.89 m/s, 248° | 99 W/m² | - |
| 1777996251 | 10.56° C | 96% | 1014.2 hPa | 0 mm | 0.45 m/s, 343° | 73 W/m² | - |
| 1777995947 | 10.56° C | 96% | 1014.3 hPa | 0 mm | 0 m/s | 47 W/m² | - |
| 1777995643 | 10.56° C | 96% | 1014.2 hPa | 0 mm | 0.45 m/s, 326° | 45 W/m² | - |
| 1777995341 | 10.56° C | 96% | 1014.3 hPa | 0 mm | 0 m/s | 66 W/m² | - |
| 1777995038 | 10.56° C | 96% | 1014.1 hPa | 0 mm | 0 m/s | 60 W/m² | - |
| 1777994734 | 10.56° C | 96% | 1013.9 hPa | 0 mm | 0.45 m/s, 176° | 77 W/m² | - |
| 1777994430 | 10.56° C | 96% | 1014.1 hPa | 0 mm | 0 m/s | 55 W/m² | - |
| 1777994131 | 10.56° C | 96% | 1013.9 hPa | 0 mm | 0.45 m/s, 176° | 57 W/m² | - |
| 1777993829 | 10.56° C | 96% | 1013.8 hPa | 0 mm | 0 m/s | 40 W/m² | - |
| 1777993525 | 10.56° C | 96% | 1013.9 hPa | 0 mm | 0.45 m/s, 162° | 33 W/m² | - |
| 1777993221 | 10.56° C | 96% | 1014 hPa | 0 mm | 0 m/s | 52 W/m² | - |
| 1777992917 | 10.56° C | 96% | 1013.8 hPa | 0 mm | 0 m/s | 84 W/m² | - |
| 1777992615 | 10° C | 96% | 1013.7 hPa | 0 mm | 0.45 m/s, 163° | 57 W/m² | - |
| 1777992313 | 10.56° C | 96% | 1013.4 hPa | 0 mm | 0.45 m/s, 163° | 49 W/m² | - |
| 1777992010 | 10° C | 96% | 1013.7 hPa | 0 mm | 0 m/s | 28 W/m² | - |
| 1777991708 | 10° C | 96% | 1013.6 hPa | 0 mm | 0 m/s | 37 W/m² | - |
| 1777991405 | 10° C | 96% | 1013.7 hPa | 0 mm | 0.89 m/s, 160° | 27 W/m² | - |
| 1777991102 | 10° C | 96% | 1013.7 hPa | 0 mm | 0 m/s | 27 W/m² | - |
* Rain latest hour (hover to see other rain measurements)
** Current wind speed in m/s (hover to see current wind gust speed)